Location: C�mpuri de-Sus
(45.9500°N, 22.5500°E)
Time: 12:07:43
(UTC+00:00)

BREEZE-M DEB (TANK) - Pass Details

Date: 24 October 2021
Orbit: 355 x 14883 km, 49.5° (Epoch: 06 December)

Event Time Altitude Azimuth Distance (km) Brightness Sun altitude
Rises 17:22:57 0° 272° (W) 8,792 11.0 -20.6°
Reaches altitude 10° 17:31:24 10° 276° (W) 5,651 9.6 -22.0°
Maximum altitude 17:43:02 63° 357° (N) 1,022 4.6 -24.0°
Enters shadow 17:44:00 52° 47° (NE) 1,003 4.3 -24.2°
